Weather History for Peachtree City, GA

Change the Weather History Date:

Sunday, October 21, 2012

  Actual Average Record
Temperature  
Mean Temperature 57 °F 60 °F  
Max Temperature 75 °F 73 °F 82 °F (2003)
Min Temperature 39 °F 47 °F 32 °F (2006)
Degree Days  
Heating Degree Days 8 6  
Month to date heating degree days 79  
Since 1 July heating degree days 92  
Cooling Degree Days 0 1  
Month to date cooling degree days 35  
Year to date cooling degree days 1643  
Growing Degree Days 7 (Base 50)    
Moisture  
Dew Point 45 °F    
Average Humidity 74    
Maximum Humidity 97    
Minimum Humidity 33    
Precipitation  
Precipitation 0.00 in 0.10 in 0.02 in (2002)
Month to date precipitation 2.52  
Snow  
Snow 0.00 in - - ()
Month to date snowfall  
Since 1 July snowfall  
Since 1 September snowfall  
Snow Depth -    
Sea Level Pressure  
Sea Level Pressure 30.12 in    
Wind  
Wind Speed 1 mph (NNW)    
Max Wind Speed 10 mph    
Max Gust Speed -    
Visibility 10 miles    
Events      
T = Trace of Precipitation, MM = Missing Value Source: NWS Daily Summary

Daily Weather History Graph

Daily Weather History Graph

Search for Another Location

Airport:

Trip Planner

Search our weather history database for the weather conditions in past years. The results will help you decide how hot, cold, wet, or windy it might be!

Date:

Astronomy

Oct. 21, 2012 Rise Set
Actual Time 7:47 AM EDT 6:57 PM EDT
Civil Twilight 7:22 AM EDT 7:22 PM EDT
Nautical Twilight 6:53 AM EDT 7:51 PM EDT
Astronomical Twilight 6:24 AM EDT 8:20 PM EDT
Moon 2:02 PM EDT (10/21) No Moon Set
Length of Visible Light 11h 59m
Length of Day
11h 09m
Waxing Crescent, 45% of the Moon is Illuminated
Oct 21
Waxing Crescent
Oct 21
First Quarter
Oct 29
Full
Nov 6
Last Quarter
Nov 13
New

Hourly Weather History & Observations

Time (EDT) Temp. Dew Point Humidity Pressure Visibility Wind Dir Wind Speed Gust Speed Precip Events Conditions
12:53 AM 46.0 °F 44.1 °F 93% 30.02 in 10.0 mi Calm Calm - N/A   Clear
1:53 AM 44.1 °F 42.1 °F 93% 30.03 in 10.0 mi Calm Calm - N/A   Clear
2:53 AM 43.0 °F 41.0 °F 93% 30.04 in 10.0 mi Calm Calm - N/A   Clear
3:53 AM 43.0 °F 39.9 °F 89% 30.05 in 10.0 mi Calm Calm - N/A   Clear
4:53 AM 41.0 °F 39.9 °F 96% 30.06 in 10.0 mi Calm Calm - N/A   Clear
6:53 AM 39.9 °F 37.9 °F 93% 30.12 in 10.0 mi Calm Calm - N/A   Clear
7:53 AM 39.9 °F 39.0 °F 97% 30.14 in 10.0 mi Calm Calm - N/A   Clear
8:53 AM 46.0 °F 43.0 °F 89% 30.15 in 10.0 mi Calm Calm - N/A   Clear
9:53 AM 55.9 °F 48.9 °F 77% 30.18 in 10.0 mi Calm Calm - N/A   Clear
10:53 AM 64.0 °F 46.9 °F 54% 30.18 in 10.0 mi Calm Calm - N/A   Clear
11:53 AM 66.9 °F 46.9 °F 49% 30.17 in 10.0 mi NNW 6.9 mph - N/A   Clear
12:53 PM 69.1 °F 46.0 °F 44% 30.16 in 10.0 mi NNW 10.4 mph - N/A   Clear
1:53 PM 71.1 °F 45.0 °F 39% 30.15 in 10.0 mi North 5.8 mph - N/A   Clear
3:53 PM 73.9 °F 43.0 °F 33% 30.12 in 10.0 mi NW 5.8 mph - N/A   Clear
4:53 PM 75.0 °F 44.1 °F 33% 30.12 in 10.0 mi Variable 3.5 mph - N/A   Clear
5:53 PM 75.0 °F 44.1 °F 33% 30.12 in 10.0 mi Calm Calm - N/A   Clear
6:53 PM 60.1 °F 53.1 °F 78% 30.13 in 10.0 mi Calm Calm - N/A   Clear
7:53 PM 55.9 °F 51.1 °F 84% 30.14 in 10.0 mi Calm Calm - N/A   Clear
8:53 PM 53.1 °F 50.0 °F 89% 30.15 in 10.0 mi Calm Calm - N/A   Clear
9:53 PM 52.0 °F 48.9 °F 89% 30.16 in 10.0 mi Calm Calm - N/A   Clear
10:53 PM 51.1 °F 48.9 °F 92% 30.15 in 10.0 mi Calm Calm - N/A   Clear
11:53 PM 50.0 °F 48.0 °F 93% 30.15 in 10.0 mi Calm Calm - N/A   Clear